Info for pilots

Image

Airfield Info:

EBUL
N51 08.7 - E003 28.6
ELEV 95' / 29m
RWY 07 / 25
799m * 45m (CIV) - 2980m (MIL)
Ursel Radio 135.130
Tel Aero Club Brugge : +32(0)9 374 25 75
Tel Vliegclub Ursel : +32(0)9 374 12 90

Operational Hours
FRI: 14h00LT - SS+30 MIN
SAT, SUN and HOL: TKOF and LDG: 10h00LT - SS+30 MIN
After 20h00LT to SS+30 MIN: only LDG allowed (PN)

Local Traffic Regulations
The use of the AD is subject to PPR from the OPR;
AD given in concession to the CIV club outside MIL ACT;
Solo training flights can only be performed after two reconnaissance flights with instructor. The solo training flight must be performed within six weeks after the first reconnaissance flight;
Jet aircraft operations not allowed.

Obstacles:
trees between 10M AGL and 22M AGL, caution when crosswind:
North of the RWY, 75M from CL, along the whole length of the RWY;
South of the RWY, 75M from CL, and at THR RWY 25 from THR RWY 07 to 140M east of THR RWY 07



Image

Image

Watch out!

Flight Procedures
RWY 07 and 25 left hand circuit, 1.200 FT QNH

Image

Taxi procedures:
RWY 07 (TKOF):
taxi on the north side of the RWY to the HLDG position of RWY 07

RWY 07 (LDG):
after landing roll out to the second intersection (THR RWY 25), turn left, turn left again, taxi via the TWY to the first intersection, turn left, cross the RWY (check for landing ACFT), taxi on the south side of the RWY to the AD reporting office

RWY 25 (TKOF):
taxi on the north side of the first intersection, turn left, next turn right, taxi via the TWY to the second intersection, turn right, taxi to the HLDG of RWY 25

RWY 25 (LDG):
after landing roll out to the end of the RWY, taxi on the south side of the RWY to the AD reporting office.





Image

Taxi & Circuit?

Image
Image
Image
Image

Current Metars - Auto refresh

EBOS - Oostende
2021/09/23 21:50 EBOS 232150Z 23008KT 9999 BKN007 15/14 Q1019 TEMPO SCT009


EBAW - Antwerpen
2021/09/23 21:50 EBAW 232150Z AUTO /////KT CAVOK 16/13 Q1018


EBBR - Brussel
2021/09/23 21:50 EBBR 232150Z 25007KT 9999 FEW036 16/13 Q1019 NOSIG

Source : NOAA.GOV

Current TAFs - Auto refresh

EBOS - Oostende
2021/09/23 18:27 TAF EBOS 231710Z 2318/2424 25010KT 9999 SCT035 PROB40 TEMPO 2322/2408 BKN008 BKN040

EBAW - Antwerpen
2021/09/23 21:27 TAF TAF EBAW 232000Z 2321/2406 24006KT 9999 FEW030 BKN045 TEMPO 2401/2406 BKN006 PROB40 TEMPO 2402/2406 3500 BR BKN004

EBBR - Brussel
2021/09/23 18:27 TAF TAF EBBR 231710Z 2318/2424 25007KT 9999 BKN035 PROB40 TEMPO 2323/2409 BKN008 BKN035

Source : NOAA.GOV
Image

Webcam

Direction runway 07 :